Regional Weather Roundup
Issued by NWS State College, PA

Home | Current Version | Previous Version | Text Only | Print | Product List | Glossary Off
Versions: 1 2 3 4 5 6 7 8 9 10 11 12 13 14 15 16 17 18 19 20 21 22 23 24 25 26 27 28 29 30 31 32 33 34 35 36 37 38 39 40 41 42 43 44 45 46 47 48 49 50

000
ASUS41 KCTP 040110
RWRCTP

REGIONAL WEATHER ROUNDUP
NATIONAL WEATHER SERVICE STATE COLLEGE PA
900 PM EDT TUE MAY 03 2016

Note: "fair" indicates few or no clouds below 12,000 feet with no
significant weather and/or obstructions to visibility.

* = STATION THAT DOES NOT REPORT PRECIPITATION /E.G. RAIN...SNOW...ETC/
    THUNDER OR FOG.

PAZ002>004-007>009-013>016-020>023-029>032-040200-
WESTERN PENNSYLVANIA

CITY           SKY/WX    TMP DP  RH WIND       PRES   REMARKS
ERIE           PTCLDY    47  40  76 SW3       29.83S
MEADVILLE      CLEAR     47  38  71 N5        29.82R
FRANKLIN*      CLEAR     50  39  66 CALM      29.83S
NEW CASTLE     MOCLDY    54  39  57 N3        29.83R
BEAVER COUNTY  PTCLDY    55  39  54 CALM      29.82R
BUTLER*        CLOUDY    55  41  58 CALM      29.84R
PITTSBURGH INT MOCLDY    58  41  53 W5        29.80R
PITTSBURGH     MOCLDY    57  41  55 W6        29.80R
INDIANA*       CLOUDY    57  43  58 NW6       29.84R
LATROBE        CLOUDY    57  50  77 SW7       29.82R
WASHINGTON CO* CLEAR     52  45  76 CALM      29.83R
$$

PAZ004>006-010>012-017>019-024>028-033>037-041-042-045-046-049>053-040200-
CENTRAL PENNSYLVANIA

CITY           SKY/WX    TMP DP  RH WIND       PRES   REMARKS
BRADFORD       CLOUDY    47  43  86 CALM      29.81R
DUBOIS         CLOUDY    53  42  66 N6        29.80R
CLEARFIELD     CLOUDY    58  38  47 W6        29.79R
JOHNSTOWN      CLOUDY    53  43  68 W7        29.80R
ALTOONA        CLOUDY    58  45  62 CALM      29.79R
STATE COLLEGE  LGT RAIN  55  50  82 NE5       29.79R
WILLIAMSPORT   CLOUDY    53  48  83 E5        29.80R
SELINSGROVE    CLOUDY    56  50  80 E5        29.81R
FT INDIANTOWN  CLOUDY    56  56 100 NE6       29.80S
CAPITAL CITY   CLOUDY    60  53  77 E7        29.79R
HARRISBURG     MOCLDY    58  52  80 SE7       29.78S
YORK           CLOUDY    58  53  84 E6        29.77F
$$

PAZ038>040-043-044-047-048-054-055-060>062-067>071-040200-
EASTERN PENNSYLVANIA

CITY           SKY/WX    TMP DP  RH WIND       PRES   REMARKS
SCRANTON       CLOUDY    51  50  96 CALM      29.81S
MOUNT POCONO   FOG       48  46  93 SE6       29.82R VSB 1/4
ALLENTOWN      CLOUDY    54  51  90 E7        29.81S
QUAKERTOWN*    CLOUDY    54  54 100 SE5       29.83S
READING        CLOUDY    56  51  84 E6        29.80R
LANCASTER      CLOUDY    55  53  93 E6        29.80S
COATESVILLE    CLOUDY    55 N/A N/A MISG      29.82S
POTTSTOWN      CLOUDY    54  53  97 E3        29.84R
BLUE BELL      CLOUDY    52  52 100 E5        29.82R
DOYLESTOWN     CLOUDY    51  51 100 VRB3      29.82S
WILLOW GROVE   NOT AVBL
NORTH PHILA    CLOUDY    55  51  86 E8        29.84R
PHILADELPHIA   MOCLDY    55  49  80 E9        29.83R
$$




USA.gov is the U.S. government's official web portal to all federal, state and local government web resources and services.